TimeEDT,TemperatureF,Dew PointF,Humidity,Sea Level PressureIn,VisibilityMPH,Wind Direction,Wind SpeedMPH,Gust SpeedMPH,PrecipitationIn,Events,Conditions,WindDirDegrees,DateUTC
12:54 AM,39.9,37.0,89,29.83,10.0,West,8.1,-,N/A,,Clear,270,2013-10-24 04:54:00
1:54 AM,39.9,36.0,86,29.86,10.0,West,8.1,-,N/A,,Clear,260,2013-10-24 05:54:00
2:54 AM,39.0,36.0,89,29.87,9.0,West,8.1,-,N/A,,Clear,270,2013-10-24 06:54:00
3:54 AM,39.0,36.0,89,29.89,9.0,West,5.8,-,N/A,,Clear,270,2013-10-24 07:54:00
4:54 AM,37.9,35.1,89,29.91,10.0,West,6.9,-,N/A,,Clear,280,2013-10-24 08:54:00
5:54 AM,37.0,35.1,93,29.94,10.0,SW,4.6,-,N/A,,Clear,230,2013-10-24 09:54:00
6:54 AM,36.0,34.0,93,29.96,10.0,West,4.6,-,N/A,,Clear,270,2013-10-24 10:54:00
7:54 AM,37.0,35.1,93,29.97,10.0,West,4.6,-,N/A,,Clear,280,2013-10-24 11:54:00
8:54 AM,42.1,36.0,79,30.00,10.0,West,9.2,-,N/A,,Clear,280,2013-10-24 12:54:00
9:54 AM,46.0,35.1,66,30.00,10.0,WNW,12.7,-,N/A,,Clear,290,2013-10-24 13:54:00
10:54 AM,48.9,33.1,54,30.00,10.0,West,13.8,-,N/A,,Clear,270,2013-10-24 14:54:00
11:54 AM,51.1,32.0,48,29.99,10.0,WSW,11.5,-,N/A,,Scattered Clouds,250,2013-10-24 15:54:00
12:54 PM,50.0,30.9,48,29.97,10.0,WNW,13.8,-,N/A,,Scattered Clouds,290,2013-10-24 16:54:00
1:54 PM,50.0,28.9,44,29.96,10.0,WNW,13.8,-,N/A,,Overcast,290,2013-10-24 17:54:00
2:54 PM,51.1,27.0,39,29.96,10.0,WNW,17.3,25.3,N/A,,Overcast,290,2013-10-24 18:54:00
3:54 PM,51.1,26.1,38,29.97,10.0,West,13.8,-,N/A,,Mostly Cloudy,270,2013-10-24 19:54:00
4:54 PM,48.9,26.1,41,29.99,10.0,WNW,12.7,-,N/A,,Overcast,290,2013-10-24 20:54:00
5:54 PM,48.0,27.0,44,30.01,10.0,West,6.9,-,N/A,,Overcast,260,2013-10-24 21:54:00
6:54 PM,46.0,28.0,50,30.03,10.0,WSW,6.9,-,N/A,,Overcast,250,2013-10-24 22:54:00
7:54 PM,44.1,30.0,58,30.06,10.0,WSW,5.8,-,N/A,,Clear,240,2013-10-24 23:54:00
8:54 PM,39.9,30.0,68,30.07,10.0,West,5.8,-,N/A,,Clear,260,2013-10-25 00:54:00
9:54 PM,39.9,28.9,65,30.08,10.0,SW,6.9,-,N/A,,Clear,230,2013-10-25 01:54:00
10:54 PM,37.9,28.9,70,30.09,10.0,West,6.9,-,N/A,,Clear,260,2013-10-25 02:54:00
11:54 PM,37.9,30.0,73,30.09,10.0,West,8.1,-,N/A,,Clear,260,2013-10-25 03:54:00